Regional Weather Roundup
Issued by NWS

Home | Current Version | Previous Version | Text Only | Print | Product List | Glossary On
Versions: 1 2 3 4 5 6 7 8 9 10 11 12 13 14 15 16 17 18 19 20 21 22 23 24 25 26 27 28 29 30 31 32 33 34 35 36 37 38 39 40 41 42 43 44 45 46 47 48 49 50
000
ASUS43 KFSD 290610
RWRSD

WEATHER ROUNDUP FOR SOUTH DAKOTA
NATIONAL WEATHER SERVICE SIOUX FALLS SD
1200 AM CST THU JAN 29 2015

NOTE: "FAIR" INDICATES FEW OR NO CLOUDS BELOW 12,000 FEET WITH NO
SIGNIFICANT WEATHER AND/OR OBSTRUCTIONS TO VISIBILITY.


SDZ001>005-009-010-012>017-290700-
NORTHWEST AND NORTH CENTRAL SOUTH DAKOTA

CITY           SKY/WX    TMP DP  RH WIND       PRES   REMARKS
BUFFALO          N/A     33  25  72 NW25G32   30.24R WCI  20
FAITH            N/A     33  25  72 N21G30    30.28R WCI  21
MOBRIDGE       CLOUDY    35  29  78 NW23G30   30.19R WCI  23
$$

SDZ012>016-024>037-041>051-057-063-072>074-290700-
SOUTHWEST AND SOUTH CENTRAL SOUTH DAKOTA

CITY           SKY/WX    TMP DP  RH WIND       PRES   REMARKS
RAPID CTY ARPT CLOUDY    33  26  75 N26G35    30.31R WCI  20
PIERRE         CLOUDY    36  29  75 NW25G33   30.22R
CUSTER         CLEAR     26  12  55 SW3       30.26R
ELLSWORTH AFB  CLOUDY    34  27  76 N24G33    30.31R WCI  21
PHILIP         CLOUDY    37  25  61 NW21      30.28R
PINE RIDGE     CLEAR     32  25  75 N12       30.31R WCI  23
WINNER         CLOUDY    37  29  72 N25G37    30.22R
$$

SDZ004>011-016>023-039-040-290700-
NORTHEAST SOUTH DAKOTA

CITY           SKY/WX    TMP DP  RH WIND       PRES   REMARKS
ABERDEEN       CLOUDY    32  26  78 N25G37    30.14R WCI  19
WATERTOWN      CLOUDY    31  27  85 N29G37    30.03R WCI  16
SISSETON         N/A     31  28  89 N26G38    30.05R WCI  17
$$

SDZ017-020-022-023-036>040-048>070-290700-
SOUTHEAST SOUTH DAKOTA

CITY           SKY/WX    TMP DP  RH WIND       PRES   REMARKS
SIOUX FALLS    CLOUDY    34  29  82 NW23G36   30.01R WCI  22
HURON          CLOUDY    33  29  85 NW25G33   30.12R WCI  20
CHAMBERLAIN    CLOUDY    34  28  80 NW20G28   30.20R WCI  22
MITCHELL       CLOUDY    34  29  82 NW22G33   30.13R WCI  22
YANKTON        CLOUDY   N/A N/A N/A NW28G36   30.08R
$$

ABBREVIATIONS USED IN REMARKS
   TC - TEMPERATURE IN CELSIUS
  WCI - WIND CHILL INDEX
   HX - HEAT INDEX
  VSB - VISIBILITY



USA.gov is the U.S. government's official web portal to all federal, state and local government web resources and services.